Location: Mason
(37.5237°N, 89.2543°W)
Time: 20:24:28
(UTC+00:00)

Meteor 2-15 Rocket - Pass Details

Date: 08 December 2021
Orbit: 939 x 956 km, 82.5° (Epoch: 17 January)

Event Time Altitude Azimuth Distance (km) Brightness Sun altitude
Rises 23:43:38 0° 173° (S) 3,613 7.6 -12.6°
Reaches altitude 10° 23:46:10 10° 169° (S) 2,670 6.9 -13.1°
Maximum altitude 23:52:07 56° 92° (E) 1,118 4.5 -14.2°
Drops below altitude 10° 23:58:04 10° 16° (NNE) 2,675 6.5 -15.3°
Sets 00:00:36 0° 13° (NNE) 3,621 7.2 -15.8°
